This is the latest recevied weather packets stored in our database for station/object XE2RCS-1. If no packets are shown the sender has not sent any weather packets the latest 10 day(s).
| Time | Temp. | Humidity | Pressure | Rain* | Wind** | Luminosity | Snow |
|---|---|---|---|---|---|---|---|
| 1788298509 | 29.44° C | 35% | 1014 hPa | 0 mm | - | - | - |
| 1788297909 | 29.44° C | 33% | 1017 hPa | 0 mm | - | - | - |
| 1788297308 | 29.44° C | 32% | 1017 hPa | 0 mm | - | - | - |
| 1788296707 | 29.44° C | 32% | 1017 hPa | 0 mm | - | - | - |
| 1788296107 | 29.44° C | 33% | 1015 hPa | 0 mm | - | - | - |
| 1788295506 | 29.44° C | 32% | 1015 hPa | 0 mm | - | - | - |
| 1788294905 | 29.44° C | 33% | 1015 hPa | 0 mm | - | - | - |
| 1788294304 | 29.44° C | 34% | 1016 hPa | 0 mm | - | - | - |
| 1788293704 | 29.44° C | 34% | 1014 hPa | 0 mm | - | - | - |
| 1788293103 | 29.44° C | 33% | 1014 hPa | 0 mm | - | - | - |
| 1788292503 | 28.89° C | 35% | 1014 hPa | 0 mm | - | - | - |
| 1788291902 | 28.33° C | 36% | 1015 hPa | 0 mm | - | - | - |
| 1788291301 | 28.89° C | 35% | 1015 hPa | 0 mm | - | - | - |
| 1788290700 | 28.89° C | 36% | 1018 hPa | 0 mm | - | - | - |
| 1788290100 | 28.89° C | 38% | 1018 hPa | 0 mm | - | - | - |
| 1788289506 | 29.44° C | 43% | 1018 hPa | 0 mm | - | - | - |
| 1788288899 | 28.33° C | 35% | 1015 hPa | 0 mm | - | - | - |
| 1788288298 | 29.44° C | 43% | 1016 hPa | 0 mm | - | - | - |
| 1788287697 | 28.33° C | 35% | 1016 hPa | 0 mm | - | - | - |
| 1788287097 | 28.33° C | 34% | 1019 hPa | 0 mm | - | - | - |
| 1788286496 | 28.33° C | 34% | 1019 hPa | 0 mm | - | - | - |
| 1788285896 | 28.33° C | 34% | 1019 hPa | 0 mm | - | - | - |
| 1788285295 | 28.33° C | 34% | 1017 hPa | 0 mm | - | - | - |
| 1788284694 | 27.78° C | 36% | 1017 hPa | 0 mm | - | - | - |
| 1788284094 | 27.78° C | 36% | 1017 hPa | 0 mm | - | - | - |
* Rain latest hour (hover to see other rain measurements)
** Current wind speed in m/s (hover to see current wind gust speed)